Flag for U.S.A. Weather past 2 weeks in Lancaster, California, U.S.A.

Now
100 °F

Sunny.


Feels Like: 96 °F
Forecast: 77 / 97 °F
Wind: 23 mph from Southwest

Location: Lancaster / Fox Field

Current Time: Aug 1, 2014 at 6:05:46 PM

Latest Report: Aug 1, 2014 at 4:56 PM


Visibility: 10 mi

Pressure: 29.82 "Hg

Humidity: 15%

Dew point: 45 °F

Location of LancasterLocation

Historic Weather in Lancaster — Graph

°F

Lancaster temperature yesterday

Maximum temperature yesterday: 102 °F (at 2:56 PM)
Minimum temperature yesterday: 69 °F (at 5:56 AM)
Average temperature yesterday: 87 °F

Past Weeks' High & Low Weather Summary

 TemperatureHumidityPressure
High105 °F (Jul 24, 2:56 PM)67% (Jul 20, 3:56 AM)30.07 "Hg (Jul 20, 3:56 AM)
Low62 °F (Jul 20, 3:56 AM)3% (Jul 24, 2:56 PM)29.75 "Hg (Jul 24, 5:56 PM)
Average83 °F28%29.92 "Hg
* Reported Jul 17 4:56 PM — Aug 1 4:56 PM, Lancaster, Weather by CustomWeather, © 2014

Note: Actual official high and low records may vary slightly from our data, if they occured in-between our weather recording intervals... More about our weather records

Advertising

Lancaster weather history for previous 24 hours

 ConditionsComfort  
Time TempWeatherWind HumidityBarometerVisibility
4:56 PM
Aug 1
100 °FSunny.23 mph15%29.82 "Hg10 mi
3:56 PM103 °FSunny.17 mph12%29.82 "Hg10 mi
2:56 PM102 °FSunny.12 mph11%29.83 "Hg10 mi
1:56 PM102 °FSunny.13 mph11%29.84 "Hg10 mi
12:56 PM100 °FSunny.8 mph15%29.86 "Hg10 mi
11:56 AM99 °FSunny.3 mph14%29.88 "Hg10 mi
10:56 AM97 °FSunny.5 mph16%29.89 "Hg10 mi
9:56 AM95 °FSunny.3 mph17%29.89 "Hg10 mi
8:56 AM91 °FSunny.No wind20%29.90 "Hg10 mi
7:56 AM84 °FSunny.No wind26%29.89 "Hg10 mi
6:56 AM79 °FClear.No wind31%29.89 "Hg10 mi
5:56 AM77 °FClear.7 mph33%29.88 "Hg10 mi
4:56 AM78 °FClear.8 mph32%29.87 "Hg10 mi
3:56 AM80 °FClear.12 mph29%29.85 "Hg10 mi
2:56 AM81 °FClear.13 mph26%29.86 "Hg10 mi
1:56 AM81 °FClear.7 mph26%29.87 "Hg10 mi
12:56 AM82 °FClear.6 mph26%29.88 "Hg10 mi
11:56 PM
Jul 31
83 °FClear.9 mph27%29.88 "Hg10 mi
10:56 PM85 °FClear.12 mph26%29.88 "Hg10 mi
9:56 PM86 °FClear.8 mph26%29.88 "Hg10 mi
8:56 PM87 °FClear.9 mph24%29.87 "Hg10 mi
7:56 PM91 °FSunny.15 mph20%29.86 "Hg10 mi
6:56 PM94 °FSunny.21 mph20%29.85 "Hg10 mi
Weather by CustomWeather, © 2014

See weather overviewHow to use our weather pages